Year,Month,Day,Hour,Minute,Value (Times are PST for temperature in C)
2017,09,22,00,00,10.30
2017,09,22,00,01,10.30
2017,09,22,00,02,10.30
2017,09,22,00,03,10.30
2017,09,22,00,04,10.30
2017,09,22,00,05,10.30
2017,09,22,00,06,10.30
2017,09,22,00,07,10.30
2017,09,22,00,08,10.30
2017,09,22,00,09,10.30
2017,09,22,00,10,10.20
2017,09,22,00,11,10.20
2017,09,22,00,12,10.20
2017,09,22,00,13,10.20
2017,09,22,00,14,10.20
2017,09,22,00,15,10.20
2017,09,22,00,16,10.10
2017,09,22,00,17,10.10
2017,09,22,00,18,10.10
2017,09,22,00,19,10.00
2017,09,22,00,20,10.00
2017,09,22,00,21,10.00
2017,09,22,00,22,9.90
2017,09,22,00,23,9.90
2017,09,22,00,24,9.90
2017,09,22,00,25,9.90
2017,09,22,00,26,9.90
2017,09,22,00,27,9.90
2017,09,22,00,28,9.90
2017,09,22,00,29,9.90
2017,09,22,00,30,9.90
2017,09,22,00,31,9.80
2017,09,22,00,32,9.80
2017,09,22,00,33,9.80
2017,09,22,00,34,9.80
2017,09,22,00,35,9.80
2017,09,22,00,36,9.80
2017,09,22,00,37,9.70
2017,09,22,00,38,9.70
2017,09,22,00,39,9.70
2017,09,22,00,40,9.70
2017,09,22,00,41,9.70
2017,09,22,00,42,9.70
2017,09,22,00,43,9.60
2017,09,22,00,44,9.60
2017,09,22,00,45,9.60
2017,09,22,00,46,9.70
2017,09,22,00,47,9.70
2017,09,22,00,48,9.70
2017,09,22,00,49,9.70
2017,09,22,00,50,9.70
2017,09,22,00,51,9.70
2017,09,22,00,52,9.70
2017,09,22,00,53,9.70
2017,09,22,00,54,9.70
2017,09,22,00,55,9.70
2017,09,22,00,56,9.80
2017,09,22,00,57,9.80
2017,09,22,00,58,9.80
2017,09,22,00,59,9.80
2017,09,22,01,00,9.80
2017,09,22,01,01,9.80
2017,09,22,01,02,9.80
2017,09,22,01,03,9.80
2017,09,22,01,04,9.80
2017,09,22,01,05,9.80
2017,09,22,01,06,9.90
2017,09,22,01,07,9.90
2017,09,22,01,08,9.90
2017,09,22,01,09,9.90
2017,09,22,01,10,9.90
2017,09,22,01,11,9.80
2017,09,22,01,12,9.80
2017,09,22,01,13,9.80
2017,09,22,01,14,9.90
2017,09,22,01,15,9.90
2017,09,22,01,16,9.90
2017,09,22,01,17,9.80
2017,09,22,01,18,9.80
2017,09,22,01,19,9.80
2017,09,22,01,20,9.80
2017,09,22,01,21,9.80
2017,09,22,01,22,9.80
2017,09,22,01,23,9.80
2017,09,22,01,24,9.80
2017,09,22,01,25,9.70
2017,09,22,01,26,9.70
2017,09,22,01,27,9.70
2017,09,22,01,28,9.70
2017,09,22,01,29,9.70
2017,09,22,01,30,9.60
2017,09,22,01,31,9.60
2017,09,22,01,32,9.60
2017,09,22,01,33,9.60
2017,09,22,01,34,9.60
2017,09,22,01,35,9.60
2017,09,22,01,36,9.50
2017,09,22,01,37,9.50
2017,09,22,01,38,9.50
2017,09,22,01,39,9.50
2017,09,22,01,40,9.40
2017,09,22,01,41,9.40
2017,09,22,01,42,9.40
2017,09,22,01,43,9.40
2017,09,22,01,44,9.40
2017,09,22,01,45,9.40
2017,09,22,01,46,9.40
2017,09,22,01,47,9.40
2017,09,22,01,48,9.40
2017,09,22,01,49,9.40
2017,09,22,01,50,9.30
2017,09,22,01,51,9.30
2017,09,22,01,52,9.30
2017,09,22,01,53,9.30
2017,09,22,01,54,9.30
2017,09,22,01,55,9.30
2017,09,22,01,56,9.30
2017,09,22,01,57,9.30
2017,09,22,01,58,9.30
2017,09,22,01,59,9.30
2017,09,22,02,00,9.30
2017,09,22,02,01,9.30
2017,09,22,02,02,9.30
2017,09,22,02,03,9.30
2017,09,22,02,04,9.30
2017,09,22,02,05,9.30
2017,09,22,02,06,9.30
2017,09,22,02,07,9.30
2017,09,22,02,08,9.30
2017,09,22,02,09,9.30
2017,09,22,02,10,9.40
2017,09,22,02,11,9.30
2017,09,22,02,12,9.30
2017,09,22,02,13,9.30
2017,09,22,02,14,9.30
2017,09,22,02,15,9.30
2017,09,22,02,16,9.30
2017,09,22,02,17,9.30
2017,09,22,02,18,9.30
2017,09,22,02,19,9.20
2017,09,22,02,20,9.20
2017,09,22,02,21,9.20
2017,09,22,02,22,9.20
2017,09,22,02,23,9.20
2017,09,22,02,24,9.20
2017,09,22,02,25,9.20
2017,09,22,02,26,9.20
2017,09,22,02,27,9.20
2017,09,22,02,28,9.10
2017,09,22,02,29,9.10
2017,09,22,02,30,9.10
2017,09,22,02,31,9.10
2017,09,22,02,32,9.10
2017,09,22,02,33,9.10
2017,09,22,02,34,9.10
2017,09,22,02,35,9.10
2017,09,22,02,36,9.00
2017,09,22,02,37,9.00
2017,09,22,02,38,9.00
2017,09,22,02,39,9.00
2017,09,22,02,40,9.00
2017,09,22,02,41,9.00
2017,09,22,02,42,9.00
2017,09,22,02,43,9.00
2017,09,22,02,44,9.00
2017,09,22,02,45,8.90
2017,09,22,02,46,9.00
2017,09,22,02,47,9.00
2017,09,22,02,48,9.00
2017,09,22,02,49,9.00
2017,09,22,02,50,9.00
2017,09,22,02,51,9.00
2017,09,22,02,52,9.00
2017,09,22,02,53,9.00
2017,09,22,02,54,9.00
2017,09,22,02,55,9.00
2017,09,22,02,56,9.10
2017,09,22,02,57,9.10
2017,09,22,02,58,9.10
2017,09,22,02,59,9.20
2017,09,22,03,00,9.20
2017,09,22,03,01,9.20
2017,09,22,03,02,9.20
2017,09,22,03,03,9.20
2017,09,22,03,04,9.20
2017,09,22,03,05,9.20
2017,09,22,03,06,9.30
2017,09,22,03,07,9.30
2017,09,22,03,08,9.20
2017,09,22,03,09,9.20
2017,09,22,03,10,9.20
2017,09,22,03,11,9.20
2017,09,22,03,12,9.20
2017,09,22,03,13,9.10
2017,09,22,03,14,9.10
2017,09,22,03,15,9.10
2017,09,22,03,16,9.10
2017,09,22,03,17,9.00
2017,09,22,03,18,9.00
2017,09,22,03,19,9.00
2017,09,22,03,20,9.00
2017,09,22,03,21,9.00
2017,09,22,03,22,9.00
2017,09,22,03,23,9.00
2017,09,22,03,24,9.00
2017,09,22,03,25,9.00
2017,09,22,03,26,9.00
2017,09,22,03,27,9.00
2017,09,22,03,28,8.90
2017,09,22,03,29,8.90
2017,09,22,03,30,8.90
2017,09,22,03,31,8.90
2017,09,22,03,32,8.80
2017,09,22,03,33,8.80
2017,09,22,03,34,8.80
2017,09,22,03,35,8.70
2017,09,22,03,36,8.70
2017,09,22,03,37,8.70
2017,09,22,03,38,8.70
2017,09,22,03,39,8.70
2017,09,22,03,40,8.70
2017,09,22,03,41,8.70
2017,09,22,03,42,8.70
2017,09,22,03,43,8.70
2017,09,22,03,44,8.70
2017,09,22,03,45,8.70
2017,09,22,03,46,8.70
2017,09,22,03,47,8.70
2017,09,22,03,48,8.70
2017,09,22,03,49,8.70
2017,09,22,03,50,8.70
2017,09,22,03,51,8.70
2017,09,22,03,52,8.70
2017,09,22,03,53,8.60
2017,09,22,03,54,8.60
2017,09,22,03,55,8.60
2017,09,22,03,56,8.60
2017,09,22,03,57,8.50
2017,09,22,03,58,8.50
2017,09,22,03,59,8.50
2017,09,22,04,00,8.40
2017,09,22,04,01,8.40
2017,09,22,04,02,8.40
2017,09,22,04,03,8.40
2017,09,22,04,04,8.30
2017,09,22,04,05,8.30
2017,09,22,04,06,8.30
2017,09,22,04,07,8.40
2017,09,22,04,08,8.40
2017,09,22,04,09,8.40
2017,09,22,04,10,8.50
2017,09,22,04,11,8.50
2017,09,22,04,12,8.60
2017,09,22,04,13,8.60
2017,09,22,04,14,8.60
2017,09,22,04,15,8.70
2017,09,22,04,16,8.70
2017,09,22,04,17,8.70
2017,09,22,04,18,8.70
2017,09,22,04,19,8.70
2017,09,22,04,20,8.70
2017,09,22,04,21,8.70
2017,09,22,04,22,8.70
2017,09,22,04,23,8.80
2017,09,22,04,24,8.80
2017,09,22,04,25,8.80
2017,09,22,04,26,8.80
2017,09,22,04,27,8.80
2017,09,22,04,28,8.80
2017,09,22,04,29,8.80
2017,09,22,04,30,8.80
2017,09,22,04,31,8.80
2017,09,22,04,32,8.80
2017,09,22,04,33,8.80
2017,09,22,04,34,8.80
2017,09,22,04,35,8.80
2017,09,22,04,36,8.80
2017,09,22,04,37,8.80
2017,09,22,04,38,8.80
2017,09,22,04,39,8.70
2017,09,22,04,40,8.70
2017,09,22,04,41,8.70
2017,09,22,04,42,8.70
2017,09,22,04,43,8.70
2017,09,22,04,44,8.60
2017,09,22,04,45,8.60
2017,09,22,04,46,8.60
2017,09,22,04,47,8.50
2017,09,22,04,48,8.50
2017,09,22,04,49,8.50
2017,09,22,04,50,8.50
2017,09,22,04,51,8.40
2017,09,22,04,52,8.40
2017,09,22,04,53,8.40
2017,09,22,04,54,8.40
2017,09,22,04,55,8.40
2017,09,22,04,56,8.40
2017,09,22,04,57,8.40
2017,09,22,04,58,8.40
2017,09,22,04,59,8.30
2017,09,22,05,00,8.30
2017,09,22,05,01,8.30
2017,09,22,05,02,8.30
2017,09,22,05,03,8.30
2017,09,22,05,04,8.30
2017,09,22,05,05,8.30
2017,09,22,05,06,8.20
2017,09,22,05,07,8.20
2017,09,22,05,08,8.20
2017,09,22,05,09,8.20
2017,09,22,05,10,8.20
2017,09,22,05,11,8.20
2017,09,22,05,12,8.20
2017,09,22,05,13,8.20
2017,09,22,05,14,8.20
2017,09,22,05,15,8.20
2017,09,22,05,16,8.20
2017,09,22,05,17,8.20
2017,09,22,05,18,8.20
2017,09,22,05,19,8.20
2017,09,22,05,20,8.20
2017,09,22,05,21,8.20
2017,09,22,05,22,8.20
2017,09,22,05,23,8.20
2017,09,22,05,24,8.20
2017,09,22,05,25,8.10
2017,09,22,05,26,8.10
2017,09,22,05,27,8.10
2017,09,22,05,28,8.10
2017,09,22,05,29,8.10
2017,09,22,05,30,8.10
2017,09,22,05,31,8.10
2017,09,22,05,32,8.10
2017,09,22,05,33,8.10
2017,09,22,05,34,8.10
2017,09,22,05,35,8.10
2017,09,22,05,36,8.10
2017,09,22,05,37,8.10
2017,09,22,05,38,8.10
2017,09,22,05,39,8.10
2017,09,22,05,40,8.00
2017,09,22,05,41,8.00
2017,09,22,05,42,8.00
2017,09,22,05,43,8.00
2017,09,22,05,44,8.00
2017,09,22,05,45,7.90
2017,09,22,05,46,8.00
2017,09,22,05,47,7.90
2017,09,22,05,48,7.90
2017,09,22,05,49,7.90
2017,09,22,05,50,7.90
2017,09,22,05,51,7.90
2017,09,22,05,52,7.90
2017,09,22,05,53,7.90
2017,09,22,05,54,7.90
2017,09,22,05,55,7.90
2017,09,22,05,56,7.90
2017,09,22,05,57,7.90
2017,09,22,05,58,7.90
2017,09,22,05,59,7.90
2017,09,22,06,00,7.80
2017,09,22,06,01,7.80
2017,09,22,06,02,7.80
2017,09,22,06,03,7.80
2017,09,22,06,04,7.80
2017,09,22,06,05,7.80
2017,09,22,06,06,7.80
2017,09,22,06,07,7.80
2017,09,22,06,08,7.80
2017,09,22,06,09,7.80
2017,09,22,06,10,7.80
2017,09,22,06,11,7.80
2017,09,22,06,12,7.80
2017,09,22,06,13,7.80
2017,09,22,06,14,7.70
2017,09,22,06,15,7.70
2017,09,22,06,16,7.70
2017,09,22,06,17,7.70
2017,09,22,06,18,7.70
2017,09,22,06,19,7.70
2017,09,22,06,20,7.70
2017,09,22,06,21,7.70
2017,09,22,06,22,7.70
2017,09,22,06,23,7.70
2017,09,22,06,24,7.70
2017,09,22,06,25,7.80
2017,09,22,06,26,7.80
2017,09,22,06,27,7.80
2017,09,22,06,28,7.80
2017,09,22,06,29,7.80
2017,09,22,06,30,7.80
2017,09,22,06,31,7.80
2017,09,22,06,32,7.80
2017,09,22,06,33,7.80
2017,09,22,06,34,7.80
2017,09,22,06,35,7.80
2017,09,22,06,36,7.80
2017,09,22,06,37,7.80
2017,09,22,06,38,7.80
2017,09,22,06,39,7.80
2017,09,22,06,40,7.80
2017,09,22,06,41,7.80
2017,09,22,06,42,7.80
2017,09,22,06,43,7.80
2017,09,22,06,44,7.80
2017,09,22,06,45,7.80
2017,09,22,06,46,7.80
2017,09,22,06,47,7.80
2017,09,22,06,48,7.70
2017,09,22,06,49,7.70
2017,09,22,06,50,7.70
2017,09,22,06,51,7.60
2017,09,22,06,52,7.60
2017,09,22,06,53,7.60
2017,09,22,06,54,7.60
2017,09,22,06,55,7.50
2017,09,22,06,56,7.50
2017,09,22,06,57,7.50
2017,09,22,06,58,7.50
2017,09,22,06,59,7.50
2017,09,22,07,00,7.50
2017,09,22,07,01,7.40
2017,09,22,07,02,7.40
2017,09,22,07,03,7.40
2017,09,22,07,04,7.40
2017,09,22,07,05,7.40
2017,09,22,07,06,7.40
2017,09,22,07,07,7.40
2017,09,22,07,08,7.40
2017,09,22,07,09,7.40
2017,09,22,07,10,7.40
2017,09,22,07,11,7.40
2017,09,22,07,12,7.40
2017,09,22,07,13,7.50
2017,09,22,07,14,7.50
2017,09,22,07,15,7.50
2017,09,22,07,16,7.50
2017,09,22,07,17,7.50
2017,09,22,07,18,7.60
2017,09,22,07,19,7.60
2017,09,22,07,20,7.60
2017,09,22,07,21,7.60
2017,09,22,07,22,7.60
2017,09,22,07,23,7.60
2017,09,22,07,24,7.70
2017,09,22,07,25,7.70
2017,09,22,07,26,7.70
2017,09,22,07,27,7.70
2017,09,22,07,28,7.80
2017,09,22,07,29,7.80
2017,09,22,07,30,7.80
2017,09,22,07,31,7.80
2017,09,22,07,32,7.90
2017,09,22,07,33,7.90
2017,09,22,07,34,7.90
2017,09,22,07,35,7.90
2017,09,22,07,36,8.00
2017,09,22,07,37,8.00
2017,09,22,07,38,8.10
2017,09,22,07,39,8.10
2017,09,22,07,40,8.10
2017,09,22,07,41,8.20
2017,09,22,07,42,8.20
2017,09,22,07,43,8.20
2017,09,22,07,44,8.20
2017,09,22,07,45,8.20
2017,09,22,07,46,8.20
2017,09,22,07,47,8.20
2017,09,22,07,48,8.20
2017,09,22,07,49,8.20
2017,09,22,07,50,8.20
2017,09,22,07,51,8.20
2017,09,22,07,52,8.10
2017,09,22,07,53,8.10
2017,09,22,07,54,8.10
2017,09,22,07,55,8.10
2017,09,22,07,56,8.10
2017,09,22,07,57,8.10
2017,09,22,07,58,8.10
2017,09,22,07,59,8.10
2017,09,22,08,00,8.10
2017,09,22,08,01,8.10
2017,09,22,08,02,8.20
2017,09,22,08,03,8.20
2017,09,22,08,04,8.20
2017,09,22,08,05,8.20
2017,09,22,08,06,8.20
2017,09,22,08,07,8.30
2017,09,22,08,08,8.30
2017,09,22,08,09,8.30
2017,09,22,08,10,8.40
2017,09,22,08,11,8.40
2017,09,22,08,12,8.40
2017,09,22,08,13,8.50
2017,09,22,08,14,8.60
2017,09,22,08,15,8.60
2017,09,22,08,16,8.70
2017,09,22,08,17,8.70
2017,09,22,08,18,8.70
2017,09,22,08,19,8.70
2017,09,22,08,20,8.80
2017,09,22,08,21,8.80
2017,09,22,08,22,8.80
2017,09,22,08,23,8.90
2017,09,22,08,24,8.90
2017,09,22,08,25,9.00
2017,09,22,08,26,9.00
2017,09,22,08,27,9.10
2017,09,22,08,28,9.20
2017,09,22,08,29,9.20
2017,09,22,08,30,9.30
2017,09,22,08,31,9.40
2017,09,22,08,32,9.60
2017,09,22,08,33,9.70
2017,09,22,08,34,9.80
2017,09,22,08,35,10.00
2017,09,22,08,36,10.10
2017,09,22,08,37,10.30
2017,09,22,08,38,10.50
2017,09,22,08,39,10.70
2017,09,22,08,40,10.90
2017,09,22,08,41,11.00
2017,09,22,08,42,11.20
2017,09,22,08,43,11.40
2017,09,22,08,44,11.60
2017,09,22,08,45,11.70
2017,09,22,08,46,11.90
2017,09,22,08,47,12.10
2017,09,22,08,48,12.30
2017,09,22,08,49,12.40
2017,09,22,08,50,12.60
2017,09,22,08,51,12.70
2017,09,22,08,52,12.90
2017,09,22,08,53,13.00
2017,09,22,08,54,13.00
2017,09,22,08,55,13.10
2017,09,22,08,56,13.20
2017,09,22,08,57,13.20
2017,09,22,08,58,13.30
2017,09,22,08,59,13.30
2017,09,22,09,00,13.40
2017,09,22,09,01,13.50
2017,09,22,09,02,13.60
2017,09,22,09,03,13.80
2017,09,22,09,04,13.80
2017,09,22,09,05,13.90
2017,09,22,09,06,14.00
2017,09,22,09,07,14.10
2017,09,22,09,08,14.20
2017,09,22,09,09,14.30
2017,09,22,09,10,14.30
2017,09,22,09,11,14.40
2017,09,22,09,12,14.40
2017,09,22,09,13,14.40
2017,09,22,09,14,14.50
2017,09,22,09,15,14.50
2017,09,22,09,16,14.40
2017,09,22,09,17,14.40
2017,09,22,09,18,14.40
2017,09,22,09,19,14.40
2017,09,22,09,20,14.30
2017,09,22,09,21,14.40
2017,09,22,09,22,14.40
2017,09,22,09,23,14.40
2017,09,22,09,24,14.50
2017,09,22,09,25,14.50
2017,09,22,09,26,14.60
2017,09,22,09,27,14.70
2017,09,22,09,28,14.70
2017,09,22,09,29,14.70
2017,09,22,09,30,14.70
2017,09,22,09,31,14.80
2017,09,22,09,32,14.80
2017,09,22,09,33,14.90
2017,09,22,09,34,15.00
2017,09,22,09,35,15.00
2017,09,22,09,36,15.10
2017,09,22,09,37,15.10
2017,09,22,09,38,15.10
2017,09,22,09,39,15.10
2017,09,22,09,40,15.10
2017,09,22,09,41,15.10
2017,09,22,09,42,15.20
2017,09,22,09,43,15.20
2017,09,22,09,44,15.20
2017,09,22,09,45,15.20
2017,09,22,09,46,15.30
2017,09,22,09,47,15.30
2017,09,22,09,48,15.30
2017,09,22,09,49,15.30
2017,09,22,09,50,15.30
2017,09,22,09,51,15.30
2017,09,22,09,52,15.30
2017,09,22,09,53,15.30
2017,09,22,09,54,15.30
2017,09,22,09,55,15.20
2017,09,22,09,56,15.20
2017,09,22,09,57,15.20
2017,09,22,09,58,15.20
2017,09,22,09,59,15.10
2017,09,22,10,00,15.10
2017,09,22,10,01,15.00
2017,09,22,10,02,15.00
2017,09,22,10,03,15.00
2017,09,22,10,04,15.00
2017,09,22,10,05,15.00
2017,09,22,10,06,15.00
2017,09,22,10,07,15.00
2017,09,22,10,08,15.10
2017,09,22,10,09,15.10
2017,09,22,10,10,15.10
2017,09,22,10,11,15.10
2017,09,22,10,12,15.20
2017,09,22,10,13,15.20
2017,09,22,10,14,15.30
2017,09,22,10,15,15.30
2017,09,22,10,16,15.30
2017,09,22,10,17,15.30
2017,09,22,10,18,15.40
2017,09,22,10,19,15.50
2017,09,22,10,20,15.50
2017,09,22,10,21,15.50
2017,09,22,10,22,15.50
2017,09,22,10,23,15.50
2017,09,22,10,24,15.50
2017,09,22,10,25,15.60
2017,09,22,10,26,15.60
2017,09,22,10,27,15.70
2017,09,22,10,28,15.80
2017,09,22,10,29,15.90
2017,09,22,10,30,16.00
2017,09,22,10,31,16.10
2017,09,22,10,32,16.20
2017,09,22,10,33,16.30
2017,09,22,10,34,16.30
2017,09,22,10,35,16.30
2017,09,22,10,36,16.30
2017,09,22,10,37,16.30
2017,09,22,10,38,16.40
2017,09,22,10,39,16.40
2017,09,22,10,40,16.40
2017,09,22,10,41,16.50
2017,09,22,10,42,16.50
2017,09,22,10,43,16.60
2017,09,22,10,44,16.60
2017,09,22,10,45,16.60
2017,09,22,10,46,16.60
2017,09,22,10,47,16.60
2017,09,22,10,48,16.60
2017,09,22,10,49,16.60
2017,09,22,10,50,16.60
2017,09,22,10,51,16.50
2017,09,22,10,52,16.40
2017,09,22,10,53,16.40
2017,09,22,10,54,16.50
2017,09,22,10,55,16.50
2017,09,22,10,56,16.60
2017,09,22,10,57,16.60
2017,09,22,10,58,16.70
2017,09,22,10,59,16.60
2017,09,22,11,00,16.70
2017,09,22,11,01,16.70
2017,09,22,11,02,16.70
2017,09,22,11,03,16.80
2017,09,22,11,04,16.90
2017,09,22,11,05,17.00
2017,09,22,11,06,17.10
2017,09,22,11,07,17.30
2017,09,22,11,08,17.40
2017,09,22,11,09,17.40
2017,09,22,11,10,17.50
2017,09,22,11,11,17.50
2017,09,22,11,12,17.40
2017,09,22,11,13,17.40
2017,09,22,11,14,17.30
2017,09,22,11,15,17.20
2017,09,22,11,16,17.10
2017,09,22,11,17,17.10
2017,09,22,11,18,17.10
2017,09,22,11,19,17.10
2017,09,22,11,20,17.10
2017,09,22,11,21,17.10
2017,09,22,11,22,17.10
2017,09,22,11,23,17.20
2017,09,22,11,24,17.20
2017,09,22,11,25,17.10
2017,09,22,11,26,17.00
2017,09,22,11,27,16.90
2017,09,22,11,28,16.80
2017,09,22,11,29,16.80
2017,09,22,11,30,16.80
2017,09,22,11,31,16.70
2017,09,22,11,32,16.70
2017,09,22,11,33,16.70
2017,09,22,11,34,16.80
2017,09,22,11,35,16.80
2017,09,22,11,36,16.80
2017,09,22,11,37,16.90
2017,09,22,11,38,17.00
2017,09,22,11,39,17.20
2017,09,22,11,40,17.30
2017,09,22,11,41,17.40
2017,09,22,11,42,17.50
2017,09,22,11,43,17.60
2017,09,22,11,44,17.70
2017,09,22,11,45,17.60
2017,09,22,11,46,17.60
2017,09,22,11,47,17.60
2017,09,22,11,48,17.60
2017,09,22,11,49,17.60
2017,09,22,11,50,17.60
2017,09,22,11,51,17.70
2017,09,22,11,52,17.70
2017,09,22,11,53,17.70
2017,09,22,11,54,17.70
2017,09,22,11,55,17.70
2017,09,22,11,56,17.70
2017,09,22,11,57,17.70
2017,09,22,11,58,17.70
2017,09,22,11,59,17.70
2017,09,22,12,00,17.70
2017,09,22,12,01,17.70
2017,09,22,12,02,17.70
2017,09,22,12,03,17.70
2017,09,22,12,04,17.80
2017,09,22,12,05,17.90
2017,09,22,12,06,18.00
2017,09,22,12,07,18.00
2017,09,22,12,08,18.00
2017,09,22,12,09,17.90
2017,09,22,12,10,17.90
2017,09,22,12,11,17.80
2017,09,22,12,12,17.80
2017,09,22,12,13,17.80
2017,09,22,12,14,17.70
2017,09,22,12,15,17.70
2017,09,22,12,16,17.60
2017,09,22,12,17,17.60
2017,09,22,12,18,17.60
2017,09,22,12,19,17.60
2017,09,22,12,20,17.60
2017,09,22,12,21,17.60
2017,09,22,12,22,17.50
2017,09,22,12,23,17.50
2017,09,22,12,24,17.40
2017,09,22,12,25,17.40
2017,09,22,12,26,17.40
2017,09,22,12,27,17.40
2017,09,22,12,28,17.50
2017,09,22,12,29,17.50
2017,09,22,12,30,17.60
2017,09,22,12,31,17.70
2017,09,22,12,32,17.80
2017,09,22,12,33,17.80
2017,09,22,12,34,17.90
2017,09,22,12,35,17.90
2017,09,22,12,36,17.90
2017,09,22,12,37,17.90
2017,09,22,12,38,17.90
2017,09,22,12,39,17.90
2017,09,22,12,40,17.90
2017,09,22,12,41,17.90
2017,09,22,12,42,17.80
2017,09,22,12,43,17.90
2017,09,22,12,44,17.90
2017,09,22,12,45,17.90
2017,09,22,12,46,17.90
2017,09,22,12,47,18.00
2017,09,22,12,48,18.00
2017,09,22,12,49,18.00
2017,09,22,12,50,17.90
2017,09,22,12,51,17.90
2017,09,22,12,52,17.80
2017,09,22,12,53,17.80
2017,09,22,12,54,17.70
2017,09,22,12,55,17.60
2017,09,22,12,56,17.60
2017,09,22,12,57,17.60
2017,09,22,12,58,17.70
2017,09,22,12,59,17.80
2017,09,22,13,00,17.80
2017,09,22,13,01,17.90
2017,09,22,13,02,17.90
2017,09,22,13,03,18.00
2017,09,22,13,04,18.00
2017,09,22,13,05,18.10
2017,09,22,13,06,18.20
2017,09,22,13,07,18.30
2017,09,22,13,08,18.40
2017,09,22,13,09,18.50
2017,09,22,13,10,18.60
2017,09,22,13,11,18.80
2017,09,22,13,12,18.80
2017,09,22,13,13,18.90
2017,09,22,13,14,19.00
2017,09,22,13,15,19.00
2017,09,22,13,16,19.10
2017,09,22,13,17,19.10
2017,09,22,13,18,19.20
2017,09,22,13,19,19.30
2017,09,22,13,20,19.30
2017,09,22,13,21,19.40
2017,09,22,13,22,19.40
2017,09,22,13,23,19.50
2017,09,22,13,24,19.50
2017,09,22,13,25,19.60
2017,09,22,13,26,19.60
2017,09,22,13,27,19.50
2017,09,22,13,28,19.40
2017,09,22,13,29,19.20
2017,09,22,13,30,19.00
2017,09,22,13,31,18.90
2017,09,22,13,32,18.70
2017,09,22,13,33,18.50
2017,09,22,13,34,18.40
2017,09,22,13,35,18.20
2017,09,22,13,36,18.10
2017,09,22,13,37,18.00
2017,09,22,13,38,17.90
2017,09,22,13,39,17.90
2017,09,22,13,40,17.90
2017,09,22,13,41,17.90
2017,09,22,13,42,17.90
2017,09,22,13,43,17.90
2017,09,22,13,44,17.90
2017,09,22,13,45,17.90
2017,09,22,13,46,17.90
2017,09,22,13,47,18.00
2017,09,22,13,48,18.10
2017,09,22,13,49,18.10
2017,09,22,13,50,18.20
2017,09,22,13,51,18.20
2017,09,22,13,52,18.30
2017,09,22,13,53,18.30
2017,09,22,13,54,18.40
2017,09,22,13,55,18.40
2017,09,22,13,56,18.50
2017,09,22,13,57,18.50
2017,09,22,13,58,18.60
2017,09,22,13,59,18.60
2017,09,22,14,00,18.60
2017,09,22,14,01,18.60
2017,09,22,14,02,18.60
2017,09,22,14,03,18.60
2017,09,22,14,04,18.60
2017,09,22,14,05,18.70
2017,09,22,14,06,18.80
2017,09,22,14,07,18.80
2017,09,22,14,08,19.00
2017,09,22,14,09,19.10
2017,09,22,14,10,19.20
2017,09,22,14,11,19.30
2017,09,22,14,12,19.30
2017,09,22,14,13,19.40
2017,09,22,14,14,19.40
2017,09,22,14,15,19.40
2017,09,22,14,16,19.40
2017,09,22,14,17,19.40
2017,09,22,14,18,19.40
2017,09,22,14,19,19.30
2017,09,22,14,20,19.20
2017,09,22,14,21,19.00
2017,09,22,14,22,18.90
2017,09,22,14,23,18.80
2017,09,22,14,24,18.60
2017,09,22,14,25,18.50
2017,09,22,14,26,18.40
2017,09,22,14,27,18.40
2017,09,22,14,28,18.40
2017,09,22,14,29,18.40
2017,09,22,14,30,18.40
2017,09,22,14,31,18.30
2017,09,22,14,32,18.40
2017,09,22,14,33,18.40
2017,09,22,14,34,18.40
2017,09,22,14,35,18.40
2017,09,22,14,36,18.20
2017,09,22,14,37,18.10
2017,09,22,14,38,18.10
2017,09,22,14,39,18.00
2017,09,22,14,40,18.00
2017,09,22,14,41,17.90
2017,09,22,14,42,17.90
2017,09,22,14,43,17.90
2017,09,22,14,44,17.80
2017,09,22,14,45,17.80
2017,09,22,14,46,17.80
2017,09,22,14,47,17.80
2017,09,22,14,48,17.80
2017,09,22,14,49,17.90
2017,09,22,14,50,18.00
2017,09,22,14,51,18.10
2017,09,22,14,52,18.10
2017,09,22,14,53,18.20
2017,09,22,14,54,18.20
2017,09,22,14,55,18.20
2017,09,22,14,56,18.20
2017,09,22,14,57,18.20
2017,09,22,14,58,18.20
2017,09,22,14,59,18.10
2017,09,22,15,00,18.10
2017,09,22,15,01,18.10
2017,09,22,15,02,18.10
2017,09,22,15,03,18.10
2017,09,22,15,04,18.10
2017,09,22,15,05,18.10
2017,09,22,15,06,18.20
2017,09,22,15,07,18.20
2017,09,22,15,08,18.20
2017,09,22,15,09,18.30
2017,09,22,15,10,18.30
2017,09,22,15,11,18.40
2017,09,22,15,12,18.40
2017,09,22,15,13,18.50
2017,09,22,15,14,18.50
2017,09,22,15,15,18.60
2017,09,22,15,16,18.70
2017,09,22,15,17,18.70
2017,09,22,15,18,18.70
2017,09,22,15,19,18.70
2017,09,22,15,20,18.80
2017,09,22,15,21,18.80
2017,09,22,15,22,18.80
2017,09,22,15,23,18.80
2017,09,22,15,24,18.90
2017,09,22,15,25,18.90
2017,09,22,15,26,18.90
2017,09,22,15,27,18.80
2017,09,22,15,28,18.80
2017,09,22,15,29,18.80
2017,09,22,15,30,18.90
2017,09,22,15,31,18.90
2017,09,22,15,32,18.90
2017,09,22,15,33,19.00
2017,09,22,15,34,19.10
2017,09,22,15,35,19.20
2017,09,22,15,36,19.30
2017,09,22,15,37,19.30
2017,09,22,15,38,19.30
2017,09,22,15,39,19.30
2017,09,22,15,40,19.30
2017,09,22,15,41,19.20
2017,09,22,15,42,19.20
2017,09,22,15,43,19.10
2017,09,22,15,44,19.20
2017,09,22,15,45,19.20
2017,09,22,15,46,19.30
2017,09,22,15,47,19.40
2017,09,22,15,48,19.50
2017,09,22,15,49,19.50
2017,09,22,15,50,19.60
2017,09,22,15,51,19.70
2017,09,22,15,52,19.80
2017,09,22,15,53,19.80
2017,09,22,15,54,19.90
2017,09,22,15,55,20.00
2017,09,22,15,56,20.10
2017,09,22,15,57,20.20
2017,09,22,15,58,20.20
2017,09,22,15,59,20.20
2017,09,22,16,00,20.10
2017,09,22,16,01,20.00
2017,09,22,16,02,19.90
2017,09,22,16,03,19.80
2017,09,22,16,04,19.70
2017,09,22,16,05,19.60
2017,09,22,16,06,19.60
2017,09,22,16,07,19.50
2017,09,22,16,08,19.50
2017,09,22,16,09,19.40
2017,09,22,16,10,19.30
2017,09,22,16,11,19.30
2017,09,22,16,12,19.30
2017,09,22,16,13,19.30
2017,09,22,16,14,19.20
2017,09,22,16,15,19.30
2017,09,22,16,16,19.30
2017,09,22,16,17,19.30
2017,09,22,16,18,19.40
2017,09,22,16,19,19.50
2017,09,22,16,20,19.50
2017,09,22,16,21,19.50
2017,09,22,16,22,19.60
2017,09,22,16,23,19.60
2017,09,22,16,24,19.60
2017,09,22,16,25,19.60
2017,09,22,16,26,19.60
2017,09,22,16,27,19.60
2017,09,22,16,28,19.70
2017,09,22,16,29,19.70
2017,09,22,16,30,19.80
2017,09,22,16,31,20.00
2017,09,22,16,32,20.00
2017,09,22,16,33,20.00
2017,09,22,16,34,20.00
2017,09,22,16,35,19.90
2017,09,22,16,36,19.90
2017,09,22,16,37,19.90
2017,09,22,16,38,19.90
2017,09,22,16,39,19.90
2017,09,22,16,40,19.90
2017,09,22,16,41,19.90
2017,09,22,16,42,19.90
2017,09,22,16,43,19.90
2017,09,22,16,44,19.90
2017,09,22,16,45,19.90
2017,09,22,16,46,19.80
2017,09,22,16,47,19.80
2017,09,22,16,48,19.80
2017,09,22,16,49,19.80
2017,09,22,16,50,19.80
2017,09,22,16,51,19.80
2017,09,22,16,52,19.80
2017,09,22,16,53,19.80
2017,09,22,16,54,19.80
2017,09,22,16,55,19.80
2017,09,22,16,56,19.80
2017,09,22,16,57,19.80
2017,09,22,16,58,19.80
2017,09,22,16,59,19.70
2017,09,22,17,00,19.80
2017,09,22,17,01,19.80
2017,09,22,17,02,19.80
2017,09,22,17,03,19.80
2017,09,22,17,04,19.80
2017,09,22,17,05,19.80
2017,09,22,17,06,19.80
2017,09,22,17,07,19.80
2017,09,22,17,08,19.80
2017,09,22,17,09,19.80
2017,09,22,17,10,19.80
2017,09,22,17,11,19.70
2017,09,22,17,12,19.70
2017,09,22,17,13,19.80
2017,09,22,17,14,19.80
2017,09,22,17,15,19.80
2017,09,22,17,16,19.80
2017,09,22,17,17,19.80
2017,09,22,17,18,19.80
2017,09,22,17,19,19.90
2017,09,22,17,20,19.90
2017,09,22,17,21,19.90
2017,09,22,17,22,20.00
2017,09,22,17,23,20.00
2017,09,22,17,24,20.00
2017,09,22,17,25,19.90
2017,09,22,17,26,19.90
2017,09,22,17,27,19.80
2017,09,22,17,28,19.80
2017,09,22,17,29,19.70
2017,09,22,17,30,19.60
2017,09,22,17,31,19.60
2017,09,22,17,32,19.50
2017,09,22,17,33,19.40
2017,09,22,17,34,19.40
2017,09,22,17,35,19.40
2017,09,22,17,36,19.30
2017,09,22,17,37,19.30
2017,09,22,17,38,19.20
2017,09,22,17,39,19.20
2017,09,22,17,40,19.10